"2010-11-09 00:00:00",319981,2.028,6.925,4.688,0.235,13.81,105.9421,14.48,15.35,19.95,0,110.4,13.33,15.29,328.9
"2010-11-09 00:00:30",319982,2.331,9,5.424,0.744,13.7,105.934,14.46,15.34,19.9,0,110.4,13.3,15.27,331.0
"2010-11-09 00:01:00",319983,4.001,16.86,11,1.563,16.18,105.9221,14.43,15.48,20,0,110.4,13.3,15.24,338.9
"2010-11-09 00:01:30",319984,3,17.35,1.519,0.343,13.66,105.9202,14.43,15.32,20.1,0,110.4,13.3,15.23,339.4
"2010-11-09 00:02:00",319985,3.291,19.86,2.74,0.333,13.74,105.9202,14.43,15.32,20.21,0,110.4,13.33,15.23,341.9
"2010-11-09 00:02:30",319986,3.099,18.04,1.603,0.297,14.03,105.9202,14.43,15.32,20.21,0,110.4,13.33,15.23,340.0
"2010-11-09 00:03:00",319987,2.833,16.86,2.197,0.364,14.38,105.9202,14.43,15.31,20.19,0,110.4,13.33,15.23,338.9
"2010-11-09 00:03:30",319988,2.879,17.17,2.125,0.314,14.67,105.9202,14.43,15.32,20.23,0,110.4,13.33,15.23,339.2
"2010-11-09 00:04:00",319989,2.567,12.07,4.389,0.301,14.88,105.9202,14.43,15.32,20.18,0,110.4,13.33,15.23,334.1
"2010-11-09 00:04:30",319990,2.447,8.01,5.155,0.44,15.06,105.9202,14.43,15.31,20.11,0,110.4,13.33,15.23,330.0
"2010-11-09 00:05:00",319991,2.651,2.319,5.853,0.383,15.2,105.9202,14.43,15.29,19.99,0,110.4,13.34,15.23,324.3
"2010-11-09 00:05:30",319992,2.376,8.58,3.821,0.359,15.39,105.9202,14.43,15.29,20.01,0,110.4,13.34,15.23,330.6
"2010-11-09 00:06:00",319993,2.181,10.04,4.813,0.322,15.51,105.9187,14.42,15.28,20.06,0,110.4,13.34,15.23,332.0
"2010-11-09 00:06:30",319994,2.191,8.11,5.387,0.292,15.56,105.9202,14.43,15.29,20.06,0,110.4,13.34,15.23,330.1
"2010-11-09 00:07:00",319995,2.134,5.712,6.319,0.336,15.61,105.9196,14.43,15.3,19.99,0,110.4,13.34,15.23,327.7
"2010-11-09 00:07:30",319996,3.374,359.9,9.26,1.035,16.72,105.9202,14.43,15.34,19.97,0,110.4,13.3,15.23,321.9
"2010-11-09 00:08:00",319997,3.528,1.412,5.881,1.497,17.47,105.9202,14.43,15.42,19.98,0,110.4,13.3,15.23,323.4
"2010-11-09 00:08:30",319998,3.155,353.3,4.378,0.609,15.22,105.9202,14.43,15.31,19.8,0,110.4,13.34,15.23,315.3
"2010-11-09 00:09:00",319999,2.76,356,6.958,0.816,14.98,105.9202,14.43,15.29,19.76,0,110.4,13.34,15.23,318.0
"2010-11-09 00:09:30",320000,5.055,351.6,7.819,1.46,17.11,105.9202,14.43,15.46,19.65,0,110.4,13.3,15.23,313.6
"2010-11-09 00:10:00",320001,4.621,349.8,5.996,1.166,16.33,105.9202,14.43,15.46,19.66,0,110.4,13.3,15.23,311.8
"2010-11-09 00:10:30",320002,4.897,350.9,7.168,1.317,16.25,105.9202,14.43,15.33,19.53,0,110.4,13.3,15.23,312.9
"2010-11-09 00:11:00",320003,5.288,352.9,5.862,1.473,17.13,105.9199,14.43,15.45,19.56,0,110.4,13.29,15.23,314.9
"2010-11-09 00:11:30",320004,3.502,349.4,2.303,0.309,14.36,105.9143,14.41,15.29,19.47,0,110.4,13.33,15.22,311.4
"2010-11-09 00:12:00",320005,3.115,353,4.825,0.474,14.11,105.8999,14.38,15.3,19.54,0,110.4,13.33,15.18,315.0
"2010-11-09 00:12:30",320006,3.657,11.54,14.45,1.522,16.49,105.8938,14.36,15.45,19.68,0,110.4,13.3,15.16,333.5
"2010-11-09 00:13:00",320007,2.81,17.52,4.168,0.861,14.57,105.9068,14.39,15.28,19.51,0,110.3,13.3,15.20,339.5
"2010-11-09 00:13:30",320008,2.433,16.56,3.509,0.394,14.24,105.9161,14.42,15.29,19.34,0,110.4,13.33,15.22,338.6
"2010-11-09 00:14:00",320009,2.858,19.82,2.882,0.51,14.27,105.9237,14.44,15.28,19.37,0,110.4,13.34,15.24,341.8
"2010-11-09 00:14:30",320010,2.803,20.03,5.167,0.264,14.48,105.926,14.44,15.29,19.35,0,110.4,13.34,15.25,342.0
"2010-11-09 00:15:00",320011,2.749,20.71,2.121,0.183,14.8,105.9274,14.45,15.31,19.61,0,110.4,13.34,15.25,342.7
"2010-11-09 00:15:30",320012,2.66,23.94,2.397,0.202,14.98,105.9282,14.45,15.3,19.29,0,110.4,13.34,15.25,345.9
"2010-11-09 00:16:00",320013,2.546,23.16,4.172,0.256,15.18,105.9291,14.45,15.31,19.23,0,110.4,13.34,15.25,345.2
"2010-11-09 00:16:30",320014,2.547,20.6,3.855,0.431,15.35,105.9306,14.46,15.32,19.23,0,110.4,13.35,15.26,342.6
"2010-11-09 00:17:00",320015,1.847,14.74,3.818,0.229,15.42,105.9315,14.46,15.33,19.25,0,110.4,13.35,15.26,336.7
"2010-11-09 00:17:30",320016,3.189,21.39,10.07,1.55,17.26,105.9321,14.46,15.37,19.34,0,110.4,13.31,15.26,343.4
"2010-11-09 00:18:00",320017,2.378,12.7,11.63,1.401,17.43,105.9318,14.46,15.48,19.41,0,110.4,13.31,15.26,334.7
"2010-11-09 00:18:30",320018,2.122,352.3,5.257,0.456,14.89,105.9315,14.46,15.33,19.33,0,110.4,13.35,15.26,314.3
"2010-11-09 00:19:00",320019,2.943,344.2,7.196,0.382,14.73,105.9324,14.46,15.31,19.45,0,110.4,13.34,15.26,306.2
"2010-11-09 00:19:30",320020,3.857,332.8,2.854,0.292,14.74,105.9233,14.44,15.31,19.55,0,110.4,13.35,15.24,294.8
"2010-11-09 00:20:00",320021,4.846,332.3,6.704,1.42,16.09,105.9028,14.38,15.31,19.77,0,110.4,13.31,15.19,294.3
"2010-11-09 00:20:30",320022,5.432,328.6,6.463,1.372,16.74,105.8986,14.37,15.43,20.08,0,110.4,13.31,15.18,290.6
"2010-11-09 00:21:00",320023,5.836,327.5,7.576,1.402,17.09,105.897,14.37,15.44,20.26,0,110.4,13.31,15.17,289.5
"2010-11-09 00:21:30",320024,4.91,328.3,6.042,0.938,15.68,105.8771,14.32,15.41,20.25,0,110.4,13.31,15.12,290.3
"2010-11-09 00:22:00",320025,4.298,322.4,1.545,0.162,14.28,105.8653,14.29,15.23,20.07,0,110.4,13.35,15.09,284.4
"2010-11-09 00:22:30",320026,4.299,323.5,2.457,0.242,14.11,105.868,14.29,15.23,20.09,0,110.4,13.35,15.10,285.5
"2010-11-09 00:23:00",320027,5.167,335.6,7.025,1.327,16.83,105.8692,14.3,15.35,20.04,0,110.4,13.31,15.10,297.6
"2010-11-09 00:23:30",320028,3.707,333.8,4.722,0.245,14.79,105.8692,14.3,15.36,20.06,0,110.4,13.35,15.10,295.8
"2010-11-09 00:24:00",320029,3.258,339.9,3.752,0.28,14.38,105.8716,14.3,15.22,19.82,0,110.4,13.35,15.11,301.9
"2010-11-09 00:24:30",320030,3.083,347.5,6,0.28,14.44,105.8757,14.31,15.22,19.77,0,110.4,13.35,15.12,309.5
"2010-11-09 00:25:00",320031,3.064,348,4.603,0.424,14.67,105.8884,14.35,15.23,19.76,0,110.4,13.35,15.15,310.0
"2010-11-09 00:25:30",320032,2.946,5.598,11.52,1.267,16.54,105.9013,14.38,15.39,19.85,0,110.4,13.31,15.18,327.6
"2010-11-09 00:26:00",320033,2.498,357.7,11.06,1.088,15.19,105.9044,14.39,15.25,19.72,0,110.4,13.31,15.19,319.7
"2010-11-09 00:26:30",320034,2.011,4.647,13.25,0.466,14.57,105.9151,14.42,15.24,19.64,0,110.4,13.34,15.22,326.6
"2010-11-09 00:27:00",320035,1.56,2.543,13.15,0.44,14.42,105.9156,14.42,15.24,19.75,0,110.4,13.34,15.22,324.5
"2010-11-09 00:27:30",320036,2.045,349.6,7.706,0.366,14.5,105.9186,14.42,15.26,19.77,0,110.4,13.34,15.23,311.6
"2010-11-09 00:28:00",320037,2.688,338.3,3.828,0.142,14.69,105.9195,14.43,15.27,19.74,0,110.4,13.34,15.23,300.3
"2010-11-09 00:28:30",320038,3.215,331.5,10.78,0.153,14.84,105.9204,14.43,15.28,19.78,0,110.4,13.34,15.23,293.5
"2010-11-09 00:29:00",320039,3.42,327.2,6.614,0.169,15.05,105.9207,14.43,15.28,19.8,0,110.4,13.34,15.23,289.2
"2010-11-09 00:29:30",320040,3.331,323,3.544,0.275,15.24,105.9198,14.43,15.29,19.84,0,110.4,13.34,15.23,285.0
"2010-11-09 00:30:00",320041,4.686,325,8.4,1.312,17.45,105.9289,14.45,15.45,19.92,0,110.4,13.3,15.25,287.0
"2010-11-09 00:30:30",320042,4.594,321.5,5.578,1.015,16.56,105.9243,14.44,15.45,20.13,0,110.4,13.31,15.24,283.5
"2010-11-09 00:31:00",320043,3.91,319.4,2.253,0.112,15.22,105.9224,14.43,15.29,19.93,0,110.4,13.35,15.24,281.4
"2010-11-09 00:31:30",320044,3.336,321.7,3.062,0.175,15.18,105.9227,14.43,15.31,19.83,0,110.4,13.35,15.24,283.7
"2010-11-09 00:32:00",320045,3.504,322,1.828,0.19,15.29,105.9306,14.46,15.31,19.77,0,110.4,13.35,15.26,284.0
"2010-11-09 00:32:30",320046,3.645,327,2.672,0.196,15.41,105.9413,14.48,15.31,19.71,0,110.4,13.35,15.29,289.0
"2010-11-09 00:33:00",320047,4.631,334.2,8.27,1.357,17.75,105.9495,14.5,15.46,19.73,0,110.4,13.31,15.31,296.2
"2010-11-09 00:33:30",320048,3.31,338.3,7.247,0.825,16.44,105.956,14.52,15.49,19.66,0,110.3,13.31,15.32,300.3
"2010-11-09 00:34:00",320049,2.591,347.2,4.784,0.186,15.25,105.956,14.52,15.35,19.41,0,110.4,13.35,15.32,309.2
"2010-11-09 00:34:30",320050,2.572,350.2,4.803,0.245,14.87,105.956,14.52,15.36,19.39,0,110.4,13.35,15.32,312.2
"2010-11-09 00:35:00",320051,2.465,6.867,5.054,0.492,14.96,105.956,14.52,15.44,19.42,0,110.4,13.35,15.32,328.9
"2010-11-09 00:35:30",320052,2.444,9.33,10.01,1.328,16.61,105.956,14.52,15.45,19.47,0,110.4,13.31,15.32,331.3
"2010-11-09 00:36:00",320053,2.162,5.997,13.12,1.196,16.19,105.956,14.52,15.51,19.52,0,110.4,13.31,15.32,328.0
"2010-11-09 00:36:30",320054,3.087,345.5,8.9,0.99,15.39,105.956,14.52,15.55,19.5,0,110.4,13.31,15.32,307.5
"2010-11-09 00:37:00",320055,3.816,338.2,9.33,1.325,15.71,105.9577,14.52,15.38,19.26,0,110.4,13.31,15.33,300.2
"2010-11-09 00:37:30",320056,3.454,321.6,4.625,0.284,13.98,105.9726,14.56,15.4,19.3,0,110.4,13.35,15.37,283.6
"2010-11-09 00:38:00",320057,3.927,319.6,6.78,0.257,14.08,105.9783,14.58,15.4,19.37,0,110.4,13.35,15.38,281.6
"2010-11-09 00:38:30",320058,4.595,310.7,0.82,0.155,14.3,105.9662,14.55,15.4,19.6,0,110.4,13.35,15.35,272.7
"2010-11-09 00:39:00",320059,4.809,309.1,1.183,0.107,14.56,105.956,14.52,15.39,19.82,0,110.4,13.35,15.32,271.1
"2010-11-09 00:39:30",320060,4.906,309.9,1.597,0.157,14.8,105.9492,14.5,15.36,19.91,0,110.3,13.35,15.31,271.9
"2010-11-09 00:40:00",320061,4.836,312,1.705,0.116,15.13,105.925,14.44,15.35,19.86,0,110.4,13.36,15.24,274.0
"2010-11-09 00:40:30",320062,4.629,315.5,1.728,0.211,15.36,105.9295,14.45,15.35,19.64,0,110.4,13.36,15.25,277.5
"2010-11-09 00:41:00",320063,4.123,325,3.734,0.197,15.49,105.9461,14.49,15.35,19.57,0,110.4,13.36,15.30,287.0
"2010-11-09 00:41:30",320064,3.506,332.6,4.749,0.22,15.62,105.949,14.5,15.36,19.6,0,110.4,13.36,15.30,294.6
"2010-11-09 00:42:00",320065,3.6,344.5,7.083,0.339,15.69,105.9552,14.52,15.36,19.49,0,110.4,13.36,15.32,306.5
"2010-11-09 00:42:30",320066,3.259,5.107,4.386,0.157,15.79,105.956,14.52,15.37,19.35,0,110.4,13.35,15.32,327.1
"2010-11-09 00:43:00",320067,3.355,17.63,2.899,0.202,15.87,105.956,14.52,15.38,19.33,0,110.4,13.35,15.32,339.6
"2010-11-09 00:43:30",320068,2.243,6.861,3.656,0.535,15.88,105.956,14.52,15.38,19.29,0,110.4,13.35,15.32,328.9
"2010-11-09 00:44:00",320069,1.458,13,5.445,0.585,15.89,105.956,14.52,15.38,19.28,0,110.4,13.35,15.32,335.0
"2010-11-09 00:44:30",320070,1.538,11.46,7.834,0.64,15.91,105.956,14.52,15.38,19.27,0,110.3,13.35,15.32,333.5
"2010-11-09 00:45:00",320071,1.703,11.05,11.9,1.282,16.58,105.956,14.52,15.37,19.28,0,110.4,13.32,15.32,333.0
"2010-11-09 00:45:30",320072,2.131,4.574,10.98,1.721,17.32,105.956,14.52,15.53,19.42,0,110.4,13.32,15.32,326.6
"2010-11-09 00:46:00",320073,3.08,352.1,9.04,1.266,16.42,105.9574,14.52,15.39,19.27,0,110.4,13.32,15.33,314.1
"2010-11-09 00:46:30",320074,3.559,353.9,10.28,1.122,16.83,105.9729,14.56,15.48,19.3,0,110.4,13.32,15.37,315.9
"2010-11-09 00:47:00",320075,4.38,340.4,14.34,1.288,17.14,105.9882,14.6,15.54,19.35,0,110.4,13.32,15.41,302.4
"2010-11-09 00:47:30",320076,3.37,322.9,3.328,0.237,14.76,105.9898,14.61,15.44,19.29,0,110.4,13.35,15.41,284.9
"2010-11-09 00:48:00",320077,3.283,323.8,3.553,0.118,14.77,105.9898,14.61,15.45,19.16,0,110.3,13.35,15.41,285.8
"2010-11-09 00:48:30",320078,3.423,319.1,2.185,0.101,14.91,105.9898,14.61,15.47,19.13,0,110.4,13.36,15.41,281.1
"2010-11-09 00:49:00",320079,3.379,319.5,2.82,0.135,15.03,105.9898,14.61,15.46,19.22,0,110.4,13.36,15.41,281.5
"2010-11-09 00:49:30",320080,2.782,323.6,4.024,0.206,15.12,105.9898,14.61,15.46,19.3,0,110.4,13.36,15.41,285.6
"2010-11-09 00:50:00",320081,2.62,334.3,3.469,0.098,15.31,105.9898,14.61,15.48,19.14,0,110.3,13.36,15.41,296.3
"2010-11-09 00:50:30",320082,3,343.3,4.742,0.242,15.53,105.9898,14.61,15.48,19.11,0,110.4,13.36,15.41,305.3
"2010-11-09 00:51:00",320083,2.64,351.7,2.391,0.33,15.65,105.9904,14.61,15.5,19.1,0,110.4,13.36,15.41,313.7
"2010-11-09 00:51:30",320084,2.47,356.3,7.055,0.731,15.68,105.9901,14.61,15.49,19.16,0,110.4,13.36,15.41,318.3
"2010-11-09 00:52:00",320085,2.143,1.36,3.155,0.191,15.77,105.9898,14.61,15.5,19.05,0,110.3,13.36,15.41,323.4
"2010-11-09 00:52:30",320086,2.629,349.1,4.341,0.417,15.82,105.9898,14.61,15.5,19.18,0,110.3,13.36,15.41,311.1
"2010-11-09 00:53:00",320087,2.444,355.2,4.799,0.429,15.86,105.9898,14.61,15.49,19.12,0,110.3,13.36,15.41,317.2
"2010-11-09 00:53:30",320088,3.303,339.9,5.473,0.208,15.95,105.9898,14.61,15.48,19.15,0,110.3,13.36,15.41,301.9
"2010-11-09 00:54:00",320089,3.127,345.9,2.604,0.226,15.97,105.9901,14.61,15.5,19.08,0,110.4,13.36,15.41,307.9
"2010-11-09 00:54:30",320090,3.709,342.8,3.609,0.272,16.03,106.0031,14.64,15.52,19.04,0,110.3,13.36,15.44,304.8
"2010-11-09 00:55:00",320091,3.764,329.9,5.361,0.137,16,106.0113,14.66,15.52,19.21,0,110.4,13.36,15.46,291.9
"2010-11-09 00:55:30",320092,3.755,330,2.491,0.238,16.05,106.0087,14.66,15.52,19.21,0,110.4,13.36,15.46,292.0
"2010-11-09 00:56:00",320093,3.479,331.9,3.885,0.295,16.05,106.011,14.66,15.52,19.13,0,110.4,13.36,15.46,293.9
"2010-11-09 00:56:30",320094,3.457,325.4,2.874,0.244,16,106.0124,14.66,15.53,19.23,0,110.4,13.36,15.47,287.4
"2010-11-09 00:57:00",320095,3.584,325.7,5.364,0.114,16.02,106.0113,14.66,15.52,19.16,0,110.3,13.36,15.46,287.7
"2010-11-09 00:57:30",320096,3.274,336.7,1.575,0.206,16.03,106.0158,14.67,15.53,18.99,0,110.4,13.36,15.48,298.7
"2010-11-09 00:58:00",320097,3.145,338.4,1.606,0.106,15.99,106.0189,14.68,15.54,18.99,0,110.4,13.36,15.48,300.4
"2010-11-09 00:58:30",320098,3.162,345.1,2.562,0.141,16.12,106.0234,14.69,15.54,18.94,0,110.3,13.36,15.50,307.1
"2010-11-09 00:59:00",320099,2.795,351.7,5.876,0.391,16.07,106.0237,14.69,15.54,18.96,0,110.4,13.36,15.50,313.7
"2010-11-09 00:59:30",320100,2.342,356,3.038,0.334,16.05,106.0237,14.69,15.56,19,0,110.4,13.36,15.50,318.0
"2010-11-09 01:00:00",320101,2.568,4.487,13.76,1.057,17.99,106.0223,14.69,15.68,19.2,0,110.3,13.32,15.49,326.5
"2010-11-09 01:00:30",320102,2.115,358.9,8.06,1.135,17.09,106.0203,14.68,15.69,19.18,0,110.3,13.32,15.49,320.9
"2010-11-09 01:01:00",320103,1.737,355.7,6.731,0.336,15.49,106.0223,14.69,15.55,19.03,0,110.4,13.36,15.49,317.7
"2010-11-09 01:01:30",320104,2.048,352.6,6.117,0.52,15.25,106.0237,14.69,15.54,18.99,0,110.3,13.35,15.50,314.6
"2010-11-09 01:02:00",320105,2.987,343.9,3.085,0.123,15.26,106.0237,14.69,15.57,19.06,0,110.3,13.35,15.50,305.9
"2010-11-09 01:02:30",320106,2.363,353.6,4.986,0.399,15.32,106.0237,14.69,15.56,18.99,0,110.3,13.36,15.50,315.6
"2010-11-09 01:03:00",320107,2.237,352.6,4.445,0.28,15.47,106.0237,14.69,15.58,18.91,0,110.4,13.36,15.50,314.6
"2010-11-09 01:03:30",320108,2.527,338.7,4.269,0.209,15.51,106.0237,14.69,15.58,19.07,0,110.3,13.36,15.50,300.7
"2010-11-09 01:04:00",320109,2.286,343,2.356,0.128,15.67,106.0237,14.69,15.58,19.11,0,110.4,13.36,15.50,305.0
"2010-11-09 01:04:30",320110,2.415,337.6,3.336,0.105,15.63,106.0237,14.69,15.58,19.06,0,110.4,13.36,15.50,299.6
"2010-11-09 01:05:00",320111,2.014,343.8,8.08,0.343,15.77,106.0243,14.69,15.58,19.13,0,110.3,13.36,15.50,305.8
"2010-11-09 01:05:30",320112,2.182,337.3,2.307,0.103,16,106.0288,14.71,15.6,19.03,0,110.4,13.36,15.51,299.3
"2010-11-09 01:06:00",320113,2.163,337.1,2.154,0.101,16.01,106.0364,14.73,15.6,19.01,0,110.3,13.36,15.53,299.1
"2010-11-09 01:06:30",320114,1.901,335.3,3.075,0.1,16.01,106.0468,14.75,15.62,18.93,0,110.3,13.37,15.56,297.3
"2010-11-09 01:07:00",320115,1.554,345.3,7.056,0.291,16.13,106.0573,14.78,15.64,18.87,0,110.3,13.37,15.58,307.3
"2010-11-09 01:07:30",320116,1.994,342.5,2.383,0.234,16.07,106.0575,14.78,15.64,18.92,0,110.3,13.37,15.58,304.5
"2010-11-09 01:08:00",320117,1.663,349.2,7.071,0.345,16.02,106.0575,14.78,15.65,18.95,0,110.4,13.37,15.58,311.2
"2010-11-09 01:08:30",320118,1.651,352.8,7.098,0.336,16.02,106.0575,14.78,15.66,18.93,0,110.3,13.37,15.58,314.8
"2010-11-09 01:09:00",320119,2.145,344,6.317,0.229,16.12,106.0575,14.78,15.66,18.9,0,110.4,13.37,15.58,306.0
"2010-11-09 01:09:30",320120,2.358,338.9,2.788,0.081,16.11,106.0575,14.78,15.66,18.88,0,110.3,13.36,15.58,300.9
"2010-11-09 01:10:00",320121,2.405,344.2,5.389,0.242,16.14,106.0584,14.78,15.66,18.85,0,110.4,13.37,15.59,306.2
"2010-11-09 01:10:30",320122,2.401,341.7,3.524,0.156,16.09,106.0575,14.78,15.66,18.89,0,110.3,13.37,15.58,303.7
"2010-11-09 01:11:00",320123,2.511,345.4,3.036,0.233,16.15,106.0587,14.78,15.65,18.8,0,110.3,13.37,15.59,307.4
"2010-11-09 01:11:30",320124,2.225,344.2,2.567,0.109,16.17,106.0584,14.78,15.67,18.83,0,110.4,13.37,15.59,306.2
"2010-11-09 01:12:00",320125,2.073,342.5,2.996,0.132,16.17,106.0578,14.78,15.67,18.83,0,110.3,13.37,15.58,304.5
"2010-11-09 01:12:30",320126,1.84,340.7,3.003,0.079,16.06,106.0578,14.78,15.66,18.87,0,110.4,13.37,15.58,302.7
"2010-11-09 01:13:00",320127,2.128,328.9,5.396,0.215,16.15,106.0578,14.78,15.65,18.9,0,110.3,13.37,15.58,290.9
"2010-11-09 01:13:30",320128,1.975,319.5,4.12,0.121,16.15,106.0581,14.78,15.64,18.92,0,110.4,13.37,15.59,281.5
"2010-11-09 01:14:00",320129,2.087,313.3,1.91,0.078,16.11,106.0581,14.78,15.65,18.96,0,110.4,13.37,15.59,275.3
"2010-11-09 01:14:30",320130,2.064,314.3,1.451,0.17,16.1,106.0584,14.78,15.66,18.91,0,110.3,13.37,15.59,276.3
"2010-11-09 01:15:00",320131,2.23,316.9,1.52,0.047,16.08,106.0605,14.79,15.67,18.91,0,110.3,13.37,15.59,278.9
"2010-11-09 01:15:30",320132,2.203,321.1,5.053,0.07,16.1,106.0608,14.79,15.66,18.91,0,110.3,13.36,15.59,283.1
"2010-11-09 01:16:00",320133,2.173,334.5,6.653,0.118,16.18,106.0617,14.79,15.65,18.85,0,110.3,13.36,15.59,296.5
"2010-11-09 01:16:30",320134,1.972,345.4,2.402,0.158,16.16,106.0602,14.79,15.65,18.81,0,110.3,13.36,15.59,307.4
"2010-11-09 01:17:00",320135,1.767,342.7,2.95,0.079,16.17,106.0602,14.79,15.66,18.79,0,110.3,13.36,15.59,304.7
"2010-11-09 01:17:30",320136,1.874,345.6,1.797,0.103,16.17,106.0608,14.79,15.66,18.74,0,110.3,13.36,15.59,307.6
"2010-11-09 01:18:00",320137,1.801,349.8,2.644,0.098,16.18,106.0638,14.8,15.69,18.73,0,110.3,13.36,15.60,311.8
"2010-11-09 01:18:30",320138,1.75,347.5,1.369,0.058,16.16,106.065,14.8,15.67,18.69,0,110.3,13.36,15.60,309.5
"2010-11-09 01:19:00",320139,1.448,348.1,3.227,0.179,16.2,106.0656,14.8,15.69,18.72,0,110.4,13.36,15.60,310.1
"2010-11-09 01:19:30",320140,1.741,347,2.884,0.089,16.18,106.0665,14.8,15.7,18.81,0,110.3,13.36,15.61,309.0
"2010-11-09 01:20:00",320141,1.589,348.3,2.492,0.117,16.21,106.0662,14.8,15.69,18.84,0,110.3,13.36,15.61,310.3
"2010-11-09 01:20:30",320142,1.237,343.6,3.503,0.072,16.2,106.0653,14.8,15.7,18.89,0,110.3,13.36,15.60,305.6
"2010-11-09 01:21:00",320143,1.034,346.5,7.61,0.206,16.14,106.0674,14.81,15.69,18.84,0,110.3,13.37,15.61,308.5
"2010-11-09 01:21:30",320144,1.264,335.1,4.122,0.166,16.21,106.0665,14.8,15.69,18.79,0,110.3,13.37,15.61,297.1
"2010-11-09 01:22:00",320145,1.313,328.2,3.518,0.115,16.22,106.0677,14.81,15.69,18.83,0,110.3,13.37,15.61,290.2
"2010-11-09 01:22:30",320146,1.196,325.2,3.19,0.111,16.21,106.0671,14.8,15.71,18.84,0,110.3,13.37,15.61,287.2
"2010-11-09 01:23:00",320147,1.533,325.9,2.788,0.188,16.23,106.0686,14.81,15.71,18.76,0,110.3,13.37,15.61,287.9
"2010-11-09 01:23:30",320148,1.759,333.4,3.124,0.067,16.19,106.0677,14.81,15.71,18.82,0,110.3,13.38,15.61,295.4
"2010-11-09 01:24:00",320149,1.621,333.9,4.377,0.088,16.25,106.0689,14.81,15.71,18.82,0,110.4,13.38,15.61,295.9
"2010-11-09 01:24:30",320150,1.546,329.2,4.382,0.071,16.2,106.0701,14.81,15.69,18.79,0,110.3,13.37,15.62,291.2
"2010-11-09 01:25:00",320151,1.341,321.9,3.798,0.123,16.19,106.0734,14.82,15.69,18.87,0,110.3,13.38,15.62,283.9
"2010-11-09 01:25:30",320152,1.319,323.5,4.486,0.081,16.23,106.074,14.82,15.71,18.79,0,110.3,13.38,15.63,285.5
"2010-11-09 01:26:00",320153,1.31,317.7,2.302,0.066,16.22,106.0758,14.83,15.7,18.89,0,110.3,13.38,15.63,279.7
"2010-11-09 01:26:30",320154,1.2,319.3,2.961,0.096,16.2,106.0785,14.83,15.7,18.8,0,110.3,13.38,15.64,281.3
"2010-11-09 01:27:00",320155,1.073,318.1,2.298,0.056,16.16,106.0776,14.83,15.71,18.81,0,110.3,13.38,15.64,280.1
"2010-11-09 01:27:30",320156,1.047,320.5,3.149,0.105,16.18,106.0824,14.84,15.7,18.76,0,110.3,13.38,15.65,282.5
"2010-11-09 01:28:00",320157,0.913,325.9,4.763,0.037,16.21,106.0812,14.84,15.7,18.81,0,110.3,13.38,15.64,287.9
"2010-11-09 01:28:30",320158,0.848,331.9,2.232,0.045,16.19,106.083,14.85,15.71,18.78,0,110.3,13.38,15.65,293.9
"2010-11-09 01:29:00",320159,0.93,337.7,5.905,0.078,16.26,106.0835,14.85,15.71,18.76,0,110.3,13.38,15.65,299.7
"2010-11-09 01:29:30",320160,1.049,343.5,5.186,0.098,16.27,106.0854,14.85,15.71,18.65,0,110.3,13.38,15.66,305.5
"2010-11-09 01:30:00",320161,1.004,340,4.052,0.095,16.23,106.1055,14.9,15.72,18.63,0,110.3,13.38,15.71,302.0
"2010-11-09 01:30:30",320162,1.225,334.1,2.397,0.059,16.27,106.1119,14.92,15.72,18.66,0,110.3,13.38,15.72,296.1
"2010-11-09 01:31:00",320163,1.281,322,6.294,0.109,16.23,106.115,14.93,15.74,18.68,0,110.3,13.38,15.73,284.0
"2010-11-09 01:31:30",320164,1.516,311.1,2.231,0.037,16.21,106.1103,14.92,15.73,18.82,0,110.3,13.38,15.72,273.1
"2010-11-09 01:32:00",320165,1.57,308,2.078,0.05,16.23,106.0928,14.87,15.73,18.91,0,110.3,13.38,15.67,270.0
"2010-11-09 01:32:30",320166,1.568,307.6,1.961,0.047,16.24,106.0925,14.87,15.72,18.94,0,110.3,13.37,15.67,269.6
"2010-11-09 01:33:00",320167,1.455,312.9,1.052,0.062,16.22,106.0931,14.87,15.71,18.95,0,110.3,13.37,15.68,274.9
"2010-11-09 01:33:30",320168,1.158,318.7,3.575,0.113,16.25,106.0931,14.87,15.72,18.95,0,110.3,13.37,15.68,280.7
"2010-11-09 01:34:00",320169,0.941,333.1,3.909,0.078,16.29,106.0928,14.87,15.71,18.84,0,110.3,13.37,15.67,295.1
"2010-11-09 01:34:30",320170,0.71,352.8,6.155,0.03,16.29,106.0934,14.87,15.71,18.74,0,110.3,13.37,15.68,314.8
"2010-11-09 01:35:00",320171,0.736,5.631,3.303,0.075,16.35,106.0934,14.87,15.71,18.69,0,110.3,13.37,15.68,327.6
"2010-11-09 01:35:30",320172,0.897,16.24,4.153,0.052,16.32,106.0929,14.87,15.69,18.66,0,110.3,13.37,15.67,338.2
"2010-11-09 01:36:00",320173,0.918,15.37,2.972,0.105,16.26,106.0725,14.82,15.67,18.66,0,110.3,13.37,15.62,337.4
"2010-11-09 01:36:30",320174,0.356,9.77,20.16,0.273,16.21,106.0596,14.79,15.68,18.68,0,110.3,13.37,15.59,331.8
"2010-11-09 01:37:00",320175,-0.018,4.373,55.73,0.135,16.17,106.0596,14.79,15.67,18.69,0,110.3,13.38,15.59,326.4
"2010-11-09 01:37:30",320176,0.366,308.4,7.484,0.037,16.3,106.0661,14.8,15.67,18.66,0,110.3,13.38,15.61,270.4
"2010-11-09 01:38:00",320177,0.518,300.3,1.328,0.062,16.26,106.0892,14.86,15.67,18.63,0,110.3,13.38,15.67,262.3
"2010-11-09 01:38:30",320178,0.743,304.8,1.574,0.083,16.23,106.0934,14.87,15.68,18.62,0,110.3,13.38,15.68,266.8
"2010-11-09 01:39:00",320179,1.077,303.9,1.753,0.095,16.27,106.0934,14.87,15.69,18.6,0,110.3,13.38,15.68,265.9
"2010-11-09 01:39:30",320180,1.254,301.6,0.738,0.036,16.29,106.0937,14.87,15.71,18.59,0,110.3,13.38,15.68,263.6
"2010-11-09 01:40:00",320181,1.382,297,4.619,0.077,16.28,106.0996,14.89,15.71,18.66,0,110.3,13.38,15.69,259.0
"2010-11-09 01:40:30",320182,1.51,297.5,1.769,0.035,16.2,106.0971,14.88,15.73,18.76,0,110.3,13.38,15.69,259.5
"2010-11-09 01:41:00",320183,1.436,291.7,2.493,0.04,16.16,106.0937,14.87,15.72,18.81,0,110.3,13.38,15.68,253.7
"2010-11-09 01:41:30",320184,1.307,290,1.716,0.112,16.21,106.0934,14.87,15.73,18.79,0,110.3,13.38,15.68,252.0
"2010-11-09 01:42:00",320185,0.969,286.1,4.558,0.156,16.25,106.0934,14.87,15.73,18.68,0,110.3,13.38,15.68,248.1
"2010-11-09 01:42:30",320186,0.571,289,3.588,0.124,16.36,106.0937,14.87,15.74,18.61,0,110.3,13.38,15.68,251.0
"2010-11-09 01:43:00",320187,0.119,251,29.86,0.089,16.37,106.1149,14.93,15.74,18.59,0,110.3,13.38,15.73,213.0
"2010-11-09 01:43:30",320188,0.092,181.3,16.71,0.037,16.36,106.1264,14.96,15.75,18.59,0,110.3,13.38,15.76,143.3
"2010-11-09 01:44:00",320189,0.288,199.2,7.06,0.076,16.26,106.1273,14.96,15.77,18.59,0,110.3,13.38,15.76,161.2
"2010-11-09 01:44:30",320190,0.572,202,10.33,0.182,16.43,106.129,14.96,15.77,18.6,0,110.3,13.38,15.77,164.0
"2010-11-09 01:45:00",320191,0.879,210.3,3.932,0.057,16.36,106.1476,15.01,15.79,18.57,0,110.3,13.39,15.82,172.3
"2010-11-09 01:45:30",320192,0.951,211,6.121,0.06,16.29,106.153,15.02,15.82,18.54,0,110.3,13.39,15.83,173.0
"2010-11-09 01:46:00",320193,0.752,200.9,7.294,0.149,16.31,106.1532,15.03,15.82,18.51,0,110.3,13.38,15.83,162.9
"2010-11-09 01:46:30",320194,0.812,206.1,9.18,0.148,16.35,106.1527,15.02,15.84,18.51,0,110.3,13.39,15.83,168.1
"2010-11-09 01:47:00",320195,0.657,212.8,21.76,0.221,16.26,106.153,15.02,15.83,18.52,0,110.3,13.39,15.83,174.8
"2010-11-09 01:47:30",320196,0.93,246.7,7.143,0.178,16.34,106.153,15.02,15.84,18.52,0,110.3,13.39,15.83,208.7